Weather in Tepic

Mexico     21°30′14″N   104°53′39″W
temp.,
°C
wind,
m/s
gust,
m/s
humid.,
%
clouds,
%
prec.,
mm/h
press.,
hPa
HPBL,
m
17 june, thu
thu1700:00+22ne139791 5.2 1011165
03:00+22s119399 0.0 100919
06:00+21e009733 0.0 100914
09:00+26nnw127310 0.0 1009545
12:00+33nw24375 0.0 10072072
15:00+32w43535 0.0 10061206
18:00+26w227987 0.4 1007748
21:00+22w129885 0.3 1009188
18 june, fri
fri1800:00+22ssw129684 0.5 1010103
03:00+22wnw129867 0.4 1009162
06:00+22w019957 0.9 100977
09:00+25nw117952 0.4 1010643
12:00+31nw245014 0.6 10071782
15:00+29wsw336428 0.7 1006973
18:00+23wsw228888 1.6 1006458
21:00+22wsw1296100 0.8 1009223
19 june, sat
sat1900:00+22s1293100 1.9 1010182
03:00+22sse1294100 0.9 100874
06:00+22nne1397100 0.9 1008165
09:00+25n127997 0.2 1009601
12:00+23sw1189100 2.2 101047
15:00+22ese1291100 1.9 1009144
18:00+22ene0188100 2.9 100917
21:00+21nne1294100 4.2 101258
20 june, sun
sun2000:00+20sse1291100 4.6 101347
03:00+20nne0091100 0.2 101214
06:00+20ne1396100 1.2 101496
09:00+21ne1295100 0.9 1015125
12:00+23n118381 1.1 1015430
15:00+26wnw227199 0.9 10131023
18:00+23w128992 1.8 1013302
21:00+21sw1199100 0.4 101550
21 june, mon
mon2100:00+20e009987 0.4 101615
03:00+20ne119853 0.1 101440
06:00+19ese119856 0.1 101430
09:00+24nnw117637 0.0 1014604
12:00+28nw216087 0.1 10131295
15:00+26wnw227392 0.3 1012831
18:00+24w2390100 0.8 1012492
21:00+21wnw129885 1.0 1014181